Content
SEND FEEDBACK

Daily
Averages
Monthly
Summary
United States of America

ROCKFISH, VIRGINIA


Home > North America > United States > Virginia
Elevation: 49 feet     Latitude: 37 48N     Longitude: 078 45W

WEATHER
 
SELECT A DAY
Number of Records: 205,241;   Date Range: 1/1/95 - 8/30/14
 
SHARE

PRINT THIS DATA

[ ← Previous Day ]
WEATHER ALMANAC - JANUARY 23, 2013
[ Next Day → ]
[ °C ]   °F
Weather ElementAverageHighLow
Temperature21.4 °F26.6 °F (4:55 pm)10.2 °F (6:55 am)
Dewpoint2.6 °F16.5 °F (11:55 pm)-3.1 °F (4:55 pm)
Humidity46.9 %81 % (11:55 pm)28 % (4:55 pm)
Barometer30.28 in30.38 in (8:55 am)30.18 in (11:55 pm)
Wind Speed3.3 mph11.5 mph (8:55 am)
Weather ElementAverage
Visibility9.5 mi
Wind DirectionSE (135.6 °)

Weather ElementTotal
Precipitation---
Heating Degree Days46.6 (Base 65)
Averaged from 25 records on January 23, 2013
WEATHER CONDITIONS BREAKOUT
WIND DIRECTION BREAKOUT
WEATHER BY HOUR - JANUARY 23, 2013
[ °C ]   °F
Local TimeTemperatureDewpointHumidityBarometerVisibilityWind DirectionWind SpeedGust SpeedPrecipitationEventsConditions
1:55 AM18.3 °F-2.7 °F40 %30.33 in10.0 miNW (320°)5.8 mphMostly Cloudy
2:55 AM18.0 °F-1.1 °F43 %30.35 in10.0 miNNW (330°)3.5 mphOvercast
3:55 AM16.3 °F0.0 °F49 %30.34 in10.0 miCalmClear
4:55 AM13.5 °F0.9 °F57 %30.34 in10.0 miCalmClear
5:55 AM11.5 °F3.7 °F71 %30.35 in10.0 miCalmClear
6:55 AM10.2 °F3.7 °F75 %30.36 in10.0 miCalmClear
7:55 AM10.8 °F4.1 °F75 %30.37 in10.0 miCalmClear
8:55 AM18.5 °F1.9 °F49 %30.38 in10.0 miWNW (300°)11.5 mphClear
9:55 AM21.0 °F0.1 °F40 %30.38 in10.0 miWNW (300°)9.2 mphClear
10:55 AM23.0 °F-0.8 °F36 %30.37 in10.0 miNW (310°)8.1 mphClear
11:55 AM24.4 °F-0.8 °F34 %30.33 in10.0 miWest (270°)6.9 mphClear
12:55 PM25.5 °F-0.8 °F32 %30.29 in10.0 miWNW (290°)8.1 mphClear
1:55 PM26.1 °F-1.5 °F30 %30.26 in10.0 miVariable4.6 mphOvercast
2:55 PM26.2 °F-1.3 °F30 %30.25 in10.0 miVariable4.6 mphOvercast
4:55 PM26.6 °F-3.1 °F28 %30.24 in10.0 miWest (260°)4.6 mphScattered Clouds
5:55 PM26.6 °F-2.6 °F28 %30.23 in10.0 miWNW (290°)3.5 mphOvercast
6:55 PM25.7 °F3.2 °F38 %30.22 in10.0 miCalmOvercast
7:55 PM24.8 °F1.9 °F37 %30.20 in10.0 miCalmOvercast
8:55 PM25.7 °F1.6 °F35 %30.20 in10.0 miCalmOvercast
9:55 PM25.7 °F0.9 °F34 %30.20 in10.0 miNNE (20°)4.6 mphOvercast
10:27 PM24.8 °F3.2 °F40 %30.20 in10.0 miCalmOvercast
10:55 PM24.3 °F9.9 °F54 %30.20 in10.0 miCalm0.00 inOvercast
11:23 PM23.0 °F14.0 °F68 %30.19 in7.0 miNorth (350°)3.5 mphSnowLight Snow
11:26 PM23.0 °F14.0 °F68 %30.19 in7.0 miNorth (350°)3.5 mphSnowLight Snow
11:55 PM21.6 °F16.5 °F81 %30.18 in3.0 miCalm0.00 inSnowLight Snow
Hourly data recorded from KDAA, located miles away from Rockfish, Virginia







STORIES FROM OUR PARTNERS